Location: Unspecified
(42.3650°N, 71.1030°W)
Time: 16:47:48
(UTC+00:00)

S-56A Canister/Altair - Pass Details

Date: 26 June 2024
Orbit: 638 x 2487 km, 38.9° (Epoch: 20 July)

Event Time Altitude Azimuth Distance (km) Brightness Sun altitude
Rises 03:36:29 0° 272° (W) 4,450 11.7 -22.3°
Reaches altitude 10° 03:39:04 10° 270° (W) 3,689 11.2 -22.4°
Maximum altitude 03:49:04 73° 188° (S) 2,065 9.4 -22.9°
Drops below altitude 10° 04:03:11 10° 108° (ESE) 5,046 11.4 -23.5°
Sets 04:07:22 0° 107° (ESE) 6,134 11.9 -23.6°
